Content
SEND FEEDBACK

Daily
Averages
Monthly
Summary
Mexico

PUEBLA - LOMAS DEL MÁRMOL, PUEBLA


Home > North America > Mexico > Puebla
Elevation: 6916 feet     Latitude: 18 58N     Longitude: 098 10W

WEATHER
 
SELECT A DAY
Number of Records: 120,848;   Date Range: 1/1/95 - 7/20/14
 
SHARE

PRINT THIS DATA

[ ← Previous Day ]
WEATHER ALMANAC - JANUARY 16, 2013
[ Next Day → ]
[ °C ]   °F
Weather ElementAverageHighLow
Temperature58 °F72 °F (2:50 pm)41 °F (5:52 am)
Dewpoint41.8 °F49 °F (8:50 am)35.6 °F (5:52 am)
Humidity55.2 %81 % (5:52 am)23 % (2:50 pm)
Barometer30.16 in30.34 in (10:43 pm)29.74 in (5:50 pm)
Wind Speed6.9 mph17.3 mph (3:40 pm)
Weather ElementAverage
Visibility7.3 mi
Wind DirectionSSW (189.2 °)

Weather ElementTotal
Precipitation---
Heating Degree Days8.5 (Base 65)
Growing Degree Days6.5 (Base 50)
Averaged from 26 records on January 16, 2013
WEATHER CONDITIONS BREAKOUT
WIND DIRECTION BREAKOUT
WEATHER BY HOUR - JANUARY 16, 2013
[ °C ]   °F
Local TimeTemperatureDewpointHumidityBarometerVisibilityWind DirectionWind SpeedGust SpeedPrecipitationEventsConditions
5:45 AM48.0 °F42.0 °F75 %29.88 in3.0 miCalm
5:52 AM41.0 °F35.6 °F81 %30.28 in6.0 miWNW (290°)2.3 mphPartly Cloudy
6:41 AM42.8 °F37.4 °F81 %30.29 in7.0 miNW (320°)5.8 mphPartly Cloudy
7:44 AM42.8 °F37.4 °F81 %30.32 in7.0 miNNW (340°)6.9 mphClear
8:41 AM51.8 °F39.2 °F62 %30.33 in6.0 miWest (270°)2.3 mphClear
8:50 AM54.0 °F49.0 °F76 %30.00 in3.0 miCalmHaze
9:41 AM59.0 °F44.6 °F59 %30.33 in6.0 miSouth (180°)6.9 mphClear
10:41 AM62.6 °F46.4 °F55 %30.32 in6.0 miSSW (200°)11.5 mphScattered Clouds
11:42 AM64.4 °F46.4 °F52 %30.28 in7.0 miSouth (180°)12.7 mphMostly Cloudy
11:50 AM65.0 °F47.0 °F41 %29.94 in12.0 miESE (120°)4.5 mphMostly Cloudy
12:43 PM68.0 °F44.6 °F43 %30.25 in7.0 miSouth (190°)12.7 mphMostly Cloudy
1:40 PM68.0 °F42.8 °F40 %30.21 in8.0 miSouth (180°)12.7 mphMostly Cloudy
2:41 PM69.8 °F42.8 °F38 %30.19 in8.0 miSE (140°)11.5 mphMostly Cloudy
2:50 PM72.0 °F42.0 °F23 %29.78 in12.0 miSSE (150°)4.5 mphPartly Cloudy
3:40 PM69.8 °F41.0 °F35 %30.18 in8.0 miSSE (160°)17.3 mphScattered Clouds
4:40 PM69.8 °F39.2 °F33 %30.19 in9.0 miSSE (160°)11.5 mphScattered Clouds
5:42 PM66.2 °F39.2 °F37 %30.22 in9.0 miSouth (180°)9.2 mphScattered Clouds
5:50 PM67.0 °F39.0 °F25 %29.74 in12.0 miEast (90°)4.5 mphScattered Clouds
6:41 PM59.0 °F41.0 °F51 %30.25 in9.0 miSSE (160°)6.9 mphScattered Clouds
7:41 PM57.2 °F42.8 °F59 %30.29 in8.0 miESE (110°)6.9 mphScattered Clouds
8:41 PM55.4 °F39.2 °F54 %30.31 in8.0 miNorth (10°)6.9 mphScattered Clouds
8:45 PM56.0 °F46.0 °F61 %29.78 in3.0 miNE (40°)2.2 mphScattered Clouds
9:42 PM51.8 °F39.2 °F62 %30.33 in8.0 miNorth (350°)4.6 mphScattered Clouds
10:43 PM50.0 °F39.2 °F66 %30.34 in8.0 miNNW (330°)5.8 mphScattered Clouds
11:40 PM46.4 °F37.4 °F71 %30.34 in8.0 miNNW (330°)6.9 mphScattered Clouds
11:45 PM51.0 °F46.0 °F75 %29.85 in3.0 miENE (60°)2.2 mph
Hourly data recorded from MMPB, located miles away from Puebla - Lomas del Mármol, Puebla







STORIES FROM OUR PARTNERS